User: anonymous   Login
Location: NJAA Observatory
(40.6819°N, 74.8979°W)
Time: 14:44:34
(UTC-05:00)
Language:

Landsat 5 - Orbit

View from above orbital plane
View from above orbital plane
View from above satellite
View from above satellite

Ground track
Ground track

The orbit data is extracted from the following two-line orbital elements,

1 14780U 84021A   16338.20731968  .00000200  00000-0  24565-4 0  9990
2 14780  98.0308  80.5544 0092620  94.5880 266.5924 14.91340578746664
Epoch (UTC): 03 December 2016 04:58:32
Eccentricity: 0.0092620
inclination: 98.0308°
perigee height: 529 km
apogee height: 658 km
right ascension of ascending node: 80.5544°
argument of perigee: 94.5880°
revolutions per day: 14.91340578
mean anomaly at epoch: 266.5924°
orbit number at epoch: 74666

The dashed part of the orbit path shows where the satellite is in the earth's shadow,  

DLR